[[{"header":{"parameterUnit":"m.s-1","parameterCategory":1,"la1":30.2991,"la2":30.254,"lo1":-89.0895,"lo2":-89.0444,"dy":0.0017,"dx":0.0017,"nx":28,"ny":28,"refTime":"2025-04-28T03:00:00:Z","depth":0,"parameterNumber":2,"parameterNumberName":"U-component_of_WINDS"},"data":[0,0,0,0,0,0,0,0,0,0,0,0,0,0,0,0,0,0,0,0,0,0,0,0,0,0,0,0,0,0,0,0,0,0,0,0,0,0,0,0,0,0,0,0,0,0,0,0,0,0,0,0,0,0,0,0,0,0,-3.1838,-3.1839,0,-3.1882,-3.1883,-3.1883,-3.1841,-3.1839,-3.1837,-3.1836,-3.1879,-3.1882,-3.1884,0,0,0,0,0,0,0,0,0,0,0,0,0,-3.1716,-3.1719,-3.1838,-3.1839,-3.1839,-3.1882,-3.1883,-3.1884,-3.1841,-3.1839,-3.1837,-3.1835,-3.1878,-3.1881,-3.1885,0,0,0,0,0,0,0,0,0,0,0,0,0,-3.1766,-3.172,-3.1838,-3.1823,-3.1822,-3.1882,-3.1883,-3.1884,-3.1841,-3.1839,-3.1836,-3.1834,-3.1877,-3.1881,-3.1885,-3.1961,0,0,-3.1898,-3.1899,0,0,0,0,0,0,0,0,-3.1763,-3.177,-3.1825,-3.1824,-3.1824,-3.1853,-3.1856,-3.191,-3.1842,-3.1834,-3.1836,-3.1833,-3.1872,-3.1877,-3.1891,-3.1963,-3.1965,-3.1898,-3.19,-3.1902,-3.1903,0,0,0,0,0,0,0,-3.176,-3.1768,-3.1856,-3.1826,-3.1825,-3.1814,-3.1819,-3.1866,-3.1867,-3.1835,-3.1832,-3.1838,-3.1872,-3.1887,-3.1891,-3.1966,-3.1898,-3.1901,-3.1904,-3.1906,-3.2104,-3.2107,0,0,0,0,0,0,-3.1758,-3.1766,-3.1854,-3.1857,-3.1787,-3.1819,-3.1823,-3.1846,-3.1866,-3.1867,-3.184,-3.1835,-3.1881,-3.1887,-3.1893,-3.1983,-3.1902,-3.1906,-3.1908,-3.2101,-3.2105,-3.2108,0,0,0,0,0,0,-3.1756,-3.1766,-3.1852,-3.1811,-3.1821,-3.1823,-3.185,-3.1849,-3.1864,-3.187,-3.187,-3.1855,-3.1879,-3.1887,-3.1945,-3.1984,-3.1908,-3.1912,-3.2098,-3.2102,-3.2106,-3.2164,0,0,0,0,0,0,-3.1752,-3.1766,-3.1794,-3.1812,-3.1823,-3.1904,-3.1852,-3.1851,-3.1871,-3.1866,-3.1884,-3.1885,-3.1878,-3.1939,-3.1949,-3.1988,-3.1915,-3.2094,-3.21,-3.2105,-3.2159,-3.217,-3.2179,0,0,0,0,0,-3.1748,-3.1808,-3.1796,-3.1807,-3.1859,-3.1906,-3.1913,-3.1904,-3.1874,-3.1903,-3.1908,-3.1884,-3.1979,-3.1945,-3.1956,-3.1997,-3.2092,-3.2098,-3.2105,-3.2154,-3.2168,-3.2179,0,0,0,0,0,0,-3.1794,-3.181,-3.1797,-3.1864,-3.1885,-3.1899,-3.1935,-3.1918,-3.1946,-3.194,-3.1928,-3.1932,-3.1994,-3.2001,-3.1964,-3.2072,-3.203,-3.2039,-3.2064,-3.2077,-3.2087,-3.2083,-3.1918,0,0,0,0,0,-3.1813,-3.185,-3.1862,-3.192,-3.1931,-3.1932,-3.1952,-3.1944,-3.1963,-3.1971,-3.198,-3.2,-3.2034,-3.2057,-3.2088,-3.2161,-3.2164,-3.2195,-3.2205,-3.2213,-3.222,-3.226,-3.2273,-3.2129,-3.2129,-3.2128,0,0,-3.185,-3.1863,-3.1887,-3.193,-3.1944,-3.1983,-3.1939,-3.1981,-3.201,-3.1978,-3.2032,-3.204,-3.2062,-3.2128,-3.2157,-3.2136,-3.2262,-3.2222,-3.2228,-3.223,-3.2268,-3.2281,-3.2293,-3.2133,-3.2132,-3.2131,0,0,-3.1937,-3.1952,-3.2002,-3.2019,-3.2042,-3.2042,-3.2055,-3.2073,-3.2077,-3.2133,-3.2109,-3.2144,-3.2203,-3.2219,-3.2235,-3.2333,-3.2312,-3.2344,-3.2397,-3.2435,-3.2447,-3.2457,-3.2491,-3.2503,-3.2352,-3.2352,-3.2352,0,-3.198,-3.2038,-3.203,-3.2075,-3.2094,-3.2069,-3.212,-3.2136,-3.2169,-3.2183,-3.2159,-3.2234,-3.2247,-3.2316,-3.234,-3.2355,-3.2368,-3.234,-3.2446,-3.2456,-3.2465,-3.2497,-3.251,-3.2355,-3.2355,-3.2354,-3.2354,0,-3.209,-3.2131,-3.2169,-3.2202,-3.2226,-3.2273,-3.2273,-3.2298,-3.2289,-3.2293,-3.235,-3.2365,-3.24,-3.2417,-3.2407,-3.2485,-3.2472,-3.2448,-3.2405,-3.2482,-3.2513,-3.2525,-3.236,-3.2359,-3.2358,-3.2357,0,0,-3.2204,-3.2234,-3.2248,-3.2263,-3.2289,-3.232,-3.2368,-3.2403,-3.2425,-3.2449,-3.2488,-3.254,-3.2519,-3.2537,-3.2531,-3.2565,-3.2641,-3.2537,-3.2537,-3.2554,-3.2728,-3.2744,-3.2758,-3.2629,-3.2631,-3.2633,-3.2725,0,-3.2291,-3.2373,-3.2369,-3.2446,-3.2483,-3.2462,-3.2504,-3.2524,-3.2529,-3.2562,-3.2568,-3.2604,-3.2574,-3.2585,-3.2618,-3.2625,-3.2675,-3.2618,-3.2664,-3.2666,-3.2657,-3.2774,-3.2791,-3.2877,-3.2737,-3.2739,-3.2741,0,-3.2403,-3.2432,-3.2513,-3.2535,-3.2551,-3.2588,-3.262,-3.2652,-3.2676,-3.2677,-3.27,-3.2688,-3.2736,-3.2695,-3.2761,-3.2723,-3.2742,-3.2748,-3.2751,-3.2753,-3.2706,-3.2777,-3.2904,-3.2916,-3.2759,-3.2758,-3.2756,0,-3.2476,-3.2536,-3.2593,-3.2607,-3.2634,-3.266,-3.2673,-3.2694,-3.2716,-3.2745,-3.2759,-3.2794,-3.2812,-3.2839,-3.2837,-3.2807,-3.2904,-3.2862,-3.2906,-3.2906,-3.2924,-3.2923,-3.3054,-3.2941,-3.2941,-3.2941,-3.294,0,-3.2572,-3.2623,-3.2626,-3.2661,-3.2717,-3.2712,-3.2768,-3.2778,-3.2797,-3.2833,-3.2818,-3.2852,-3.2848,-3.2883,-3.2882,-3.2937,-3.2946,-3.2948,-3.2947,-3.2948,-3.2948,-3.2958,-3.2951,-3.2944,-3.2943,-3.2943,-3.2942,0,-3.2662,-3.2667,-3.2727,-3.2749,-3.2755,-3.2796,-3.2814,-3.2847,-3.2853,-3.2899,-3.2909,-3.2917,-3.2958,-3.296,-3.3006,-3.3005,-3.3072,-3.3065,-3.3064,-3.3061,-3.3104,-3.31,-3.3245,-3.3263,-3.314,-3.3142,-3.3143,0,-3.2722,-3.276,-3.2787,-3.2811,-3.2825,-3.2863,-3.2886,-3.2885,-3.2909,-3.294,-3.297,-3.3009,-3.304,-3.3105,-3.3115,-3.3151,-3.3143,-3.3192,-3.3148,-3.3149,-3.3142,-3.3139,-3.3143,-3.32,-3.3201,-3.3202,-3.3203,0,-3.2827,-3.2828,-3.2862,-3.2898,-3.2927,-3.2954,-3.298,-3.3001,-3.3002,-3.3031,-3.3073,-3.3097,-3.3145,-3.3184,-3.322,-3.3232,-3.3218,-3.3218,-3.3229,-3.3229,-3.3226,-3.3227,-3.3085,-3.3213,-3.3212,-3.3211,-3.3211,-3.321,-3.2902,-3.2936,-3.296,-3.2999,-3.3019,-3.3045,-3.3077,-3.3088,-3.3122,-3.3162,-3.316,-3.3206,-3.323,-3.3276,-3.3293,-3.3329,-3.3312,-3.3329,-3.3333,-3.3337,-3.334,-3.3223,-3.3335,-3.3335,-3.3335,-3.3335,-3.3334,0,-3.3005,-3.3021,-3.3057,-3.3095,-3.3126,-3.3112,-3.3141,-3.3168,-3.3209,-3.3233,-3.3265,-3.3314,-3.3352,-3.3367,-3.3405,-3.3431,-3.3425,-3.3441,-3.3437,-3.344,-3.3354,-3.3339,-3.3445,-3.3445,-3.3444,-3.3444,-3.3444,-3.3444,-3.3062,-3.3118,-3.3123,-3.3189,-3.3204,-3.325,-3.3267,-3.3291,-3.3311,-3.3366,-3.3398,-3.3408,-3.3429,-3.3469,-3.3504,-3.3507,-3.3521,-3.3539,-3.3539,-3.3458,-3.3446,-3.3436,-3.3422,-3.3543,-3.3543,-3.3623,-3.3623,-3.3624]},{"header":{"parameterUnit":"m.s-1","parameterCategory":1,"la1":30.2991,"la2":30.254,"lo1":-89.0895,"lo2":-89.0444,"dy":0.0017,"dx":0.0017,"nx":28,"ny":28,"refTime":"2025-04-28T03:00:00:Z","depth":0,"parameterNumber":3,"parameterNumberName":"V-component_of_WINDS"},"data":[0,0,0,0,0,0,0,0,0,0,0,0,0,0,0,0,0,0,0,0,0,0,0,0,0,0,0,0,0,0,0,0,0,0,0,0,0,0,0,0,0,0,0,0,0,0,0,0,0,0,0,0,0,0,0,0,0,0,2.0015,2.0015,0,2.0009,2.0009,2.0009,2.0058,2.0059,2.006,2.0062,2.0051,2.0049,2.0047,0,0,0,0,0,0,0,0,0,0,0,0,0,2.0067,2.0066,2.0015,2.0015,2.0015,2.0009,2.0009,2.0009,2.0057,2.0059,2.0061,2.0062,2.0051,2.0049,2.0047,0,0,0,0,0,0,0,0,0,0,0,0,0,2.0051,2.0065,2.0015,2.0039,2.0041,2.0009,2.0009,2.0009,2.0057,2.0059,2.0061,2.0063,2.0052,2.0049,2.0047,1.9991,0,0,2.004,2.0039,0,0,0,0,0,0,0,0,2.0052,2.0049,2.0035,2.0037,2.0039,2.0036,2.0023,2.0003,2.0057,2.0051,2.0062,2.0064,2.0044,2.0042,2.0036,1.999,1.999,2.004,2.0038,2.0037,2.0036,0,0,0,0,0,0,0,2.0053,2.0049,2.0013,2.0035,2.0038,2.0049,2.0049,2.0019,2.0036,2.0051,2.0055,2.0054,2.0045,2.0038,2.0036,1.999,2.004,2.0038,2.0036,2.0035,1.9898,1.9896,0,0,0,0,0,0,2.0051,2.005,2.0013,2.0013,2.0051,2.0046,2.0046,2.0035,2.0036,2.0038,2.0052,2.0056,2.0042,2.0039,2.0036,1.9971,2.0037,2.0035,2.0034,1.99,1.9898,1.9895,0,0,0,0,0,0,2.0052,2.0047,2.0013,2.0032,2.0029,2.0043,2.003,2.0034,2.0027,2.0037,2.0039,2.0042,2.0043,2.004,2.0002,1.9971,2.0034,2.0032,1.9903,1.99,1.9897,1.9839,0,0,0,0,0,0,2.0053,2.0047,2.0027,2.0031,2.0028,1.998,2.0028,2.0032,2.0024,2.0029,2.0028,2.003,2.0044,2.0006,2.0,1.9969,2.003,1.9906,1.9902,1.9898,1.9844,1.9834,1.9826,0,0,0,0,0,2.0055,2.001,2.0025,2.0021,2.0002,1.9978,1.9976,1.9995,2.0021,2.0,2.0006,2.003,1.9976,2.0001,1.9995,1.9963,1.9908,1.9903,1.9898,1.9848,1.9836,1.9826,0,0,0,0,0,0,1.9999,2.0011,2.0028,1.9983,1.998,1.9986,1.996,1.9981,1.9969,1.9974,1.9997,1.9996,1.9955,1.9956,1.9984,1.9909,1.9946,1.994,1.991,1.9899,1.9891,1.9891,2.0028,0,0,0,0,0,1.9982,1.9962,1.9973,1.9932,1.993,1.9945,1.9936,1.9951,1.9947,1.9945,1.9949,1.9943,1.9925,1.9913,1.9896,1.9845,1.9845,1.982,1.9811,1.9804,1.9797,1.9771,1.976,1.9879,1.9879,1.9879,0,0,1.9945,1.9949,1.9935,1.9921,1.992,1.9899,1.9944,1.9919,1.9903,1.9941,1.9906,1.9909,1.9904,1.986,1.9841,1.9859,1.9765,1.9798,1.9792,1.9789,1.9764,1.9753,1.9743,1.9876,1.9876,1.9877,0,0,1.9867,1.9868,1.9835,1.9834,1.9832,1.9843,1.9835,1.984,1.9843,1.981,1.9838,1.9819,1.9787,1.9783,1.9777,1.97,1.9721,1.9694,1.9647,1.962,1.9611,1.9603,1.9575,1.9565,1.9688,1.9688,1.9688,0,1.9821,1.9791,1.9815,1.9789,1.9782,1.9818,1.9784,1.9781,1.9773,1.9767,1.9789,1.9751,1.975,1.9705,1.9687,1.9681,1.9672,1.9693,1.9611,1.9603,1.9595,1.9569,1.9558,1.9684,1.9685,1.9685,1.9685,0,1.9735,1.9713,1.9686,1.9681,1.9671,1.9641,1.9659,1.9646,1.9663,1.9671,1.9637,1.9638,1.9623,1.9613,1.9628,1.9571,1.9583,1.9607,1.9644,1.958,1.9556,1.9546,1.9679,1.9681,1.9682,1.9682,0,0,1.9619,1.9629,1.9618,1.9616,1.9618,1.9602,1.9574,1.9561,1.9549,1.9543,1.952,1.9493,1.9516,1.9509,1.9524,1.9501,1.944,1.9529,1.9529,1.9512,1.9377,1.9358,1.9346,1.9455,1.9454,1.9452,1.9377,0,1.9543,1.9496,1.9518,1.9468,1.9449,1.9484,1.9459,1.9457,1.9465,1.9449,1.9457,1.9438,1.947,1.9466,1.9445,1.9452,1.9413,1.9458,1.9432,1.9431,1.9431,1.9333,1.9313,1.9242,1.9368,1.9366,1.9365,0,1.9447,1.944,1.9389,1.9396,1.9388,1.9366,1.9357,1.9341,1.934,1.9347,1.934,1.9361,1.9333,1.9372,1.9333,1.9363,1.9354,1.9356,1.9354,1.9351,1.9393,1.9327,1.922,1.9208,1.935,1.9351,1.9353,0,1.9367,1.9344,1.9311,1.9309,1.9316,1.9299,1.9301,1.9303,1.9294,1.9286,1.928,1.9268,1.9261,1.925,1.9267,1.9294,1.9226,1.9266,1.923,1.923,1.9213,1.9214,1.9102,1.9209,1.9209,1.9209,1.9209,0,1.9279,1.9247,1.9276,1.9255,1.922,1.9245,1.9209,1.9214,1.9215,1.9196,1.9225,1.9206,1.923,1.9213,1.9226,1.9192,1.9189,1.9193,1.9197,1.919,1.9189,1.9183,1.9188,1.9206,1.9207,1.9208,1.9208,0,1.9183,1.9202,1.9168,1.9179,1.9181,1.9154,1.9163,1.9144,1.9155,1.913,1.9125,1.9141,1.9123,1.9139,1.9121,1.913,1.9085,1.9096,1.9085,1.9088,1.9051,1.9054,1.8931,1.8916,1.9033,1.9032,1.9031,0,1.9126,1.9102,1.9111,1.9101,1.9101,1.9085,1.9077,1.9101,1.9091,1.9089,1.907,1.9055,1.9044,1.9013,1.9022,1.9008,1.9019,1.8977,1.9017,1.9011,1.9017,1.9018,1.9016,1.8968,1.8967,1.8965,1.8964,0,1.9021,1.9032,1.902,1.9011,1.9002,1.8996,1.8992,1.8982,1.9007,1.8994,1.8977,1.8968,1.8951,1.8935,1.8925,1.8926,1.8949,1.8952,1.8943,1.8935,1.893,1.8932,1.9062,1.8954,1.8955,1.8956,1.8957,1.8957,1.8942,1.8922,1.8926,1.8912,1.8913,1.8909,1.8892,1.8902,1.8888,1.8877,1.8892,1.8871,1.8871,1.886,1.8859,1.8842,1.8859,1.8846,1.8843,1.8839,1.8833,1.8934,1.884,1.884,1.8841,1.8841,1.8841,0,1.8838,1.8843,1.883,1.8825,1.8814,1.8839,1.8837,1.8825,1.8807,1.8806,1.8795,1.8776,1.8761,1.877,1.8757,1.8742,1.8752,1.8738,1.8738,1.8738,1.8819,1.8827,1.873,1.873,1.873,1.873,1.873,1.873,1.8783,1.8752,1.8763,1.8732,1.8737,1.8718,1.8714,1.8711,1.8711,1.8688,1.8677,1.8684,1.8687,1.8675,1.8662,1.8665,1.8659,1.864,1.8647,1.8722,1.8732,1.8743,1.8751,1.8639,1.8639,1.8568,1.8567,1.8567]}]]